Погода в Ишимбае

Россия / Республика Башкортостан     53°27′16″N   56°02′38″E
темп.,
°C
ветер,
м/с
пор.,
м/с
влажн.,
%
обл.,
%
осадки,
мм/ч
давл.,
гПа
погр.,
м
16 мая, пн
пн1623:00+10ю3991100 1.6 1004231
02:00+9ююв31095100 0.3 1003269
05:00+9ю41096100 0.6 1002306
08:00+10ю3798100 3.1 1001294
11:00+14юз687367 7.0 10001267
14:00+13зюз7107499 1.6 10001233
17:00+12зюз6118027 2.6 1001963
20:00+12зюз612795 0.8 1001695
17 мая, вт
вт1723:00+8юз359279 0.8 100382
02:00+8ю339464 0.3 100342
05:00+7ю359522 0.7 100390
08:00+10ю57875 0.0 1003338
11:00+14ююз68687 0.9 10031251
14:00+16юз896178 1.8 10021820
17:00+14зюз811692 3.8 10041505
20:00+12зюз497168 0.4 1005264
18 мая, ср
ср1823:00+8ю3580100 0.4 100677
02:00+6ю49884 0.0 1005157
05:00+6ю4890100 0.3 1003260
08:00+9ю4991100 4.3 1004485
11:00+13юз79635 5.7 10031577
14:00+11юз8117770 0.9 10031201
17:00+12юз71073100 1.6 10031619
20:00+9юз81285100 1.4 1004695
19 мая, чт
чт1923:00+7юз4109498 1.5 1004289
02:00+6ююз38955 0.0 1005209
05:00+5ююз3797100 0.0 1006156
08:00+7зсз369065 0.0 1008595
11:00+11з34616 0.1 10081225
14:00+12зсз3558100 0.0 10081419
17:00+12с015992 0.0 1008731
20:00+10з117394 0.1 100815
20 мая, пт
пт2023:00+7сз2596100 1.1 1008178
02:00+7ююз2290100 0.0 100869
05:00+5зюз1196100 0.0 100815
08:00+8ю228524 0.0 1008342
11:00+12ю346442 0.1 10061269
14:00+10юз5781100 0.6 1005609
17:00+11юз467673 3.8 1003948
20:00+7с249096 1.1 1003258